Theta_e
316 318 317 312 311 316 320 321 324 327 327 328 328 328 329 329 328 328 329 329 330 330 329 325 320 318 315 314 314 314 315 316 316 317 319 319 318 318 318 318 318 317 318 318 319 321 321 321 320 319 322 323 322 323 321 319 318 319 320 319 318 319 319 320 320 318 318 317 314 312 316 322 322 317 315 315 318 320 319 319 322 324 325 327 328 328 331 334
316 319 318 315 312 313 317 319 320 324 326 327 328 329 329 329 328 328 329 329 329 329 329 325 319 315 316 316 316 315 316 316 317 318 319 317 318 318 317 318 318 317 318 319 320 321 322 322 322 321 323 324 323 323 322 321 319 320 321 319 319 320 319 318 319 317 317 316 314 312 313 319 321 318 316 318 320 319 320 321 321 323 325 328 328 330 333 334
316 319 319 318 315 313 315 318 319 320 324 327 327 328 328 328 328 328 328 329 329 328 328 326 321 317 317 318 318 318 318 318 319 320 318 317 318 317 317 318 318 318 319 319 320 321 322 323 324 324 325 325 324 323 323 322 321 320 320 321 321 320 318 317 317 316 315 314 315 312 311 315 318 316 316 319 321 319 321 321 321 322 324 328 329 332 334 333
315 317 319 319 318 316 313 315 318 319 321 324 326 327 328 328 328 328 328 328 328 328 327 325 322 319 319 320 318 319 319 320 320 320 319 318 318 317 317 317 318 318 319 320 320 320 321 323 325 325 326 327 325 324 324 323 322 320 319 323 321 318 318 317 316 315 313 312 314 313 311 314 314 314 316 318 320 320 321 321 321 321 322 329 329 332 333 333
314 315 317 319 319 318 315 314 316 318 319 320 322 324 327 327 327 328 328 328 328 327 327 324 321 319 319 319 319 319 320 324 323 320 319 318 318 318 316 317 318 318 319 320 320 321 321 323 325 326 328 328 326 326 327 324 320 320 321 321 317 316 318 316 314 314 311 310 312 312 312 314 312 312 315 318 320 320 320 319 321 321 322 329 329 332 333 333
313 314 315 318 320 320 318 316 315 317 318 318 319 320 324 327 327 328 327 328 327 327 326 324 321 318 319 319 320 320 322 328 325 321 321 319 319 319 317 316 317 318 318 319 321 322 322 323 324 325 328 328 327 328 329 323 319 324 324 319 316 315 316 313 311 310 309 310 312 313 312 312 312 314 314 315 319 318 317 316 316 317 321 329 331 333 333 333
312 314 314 316 318 320 320 318 315 316 317 318 318 318 320 323 326 328 327 327 327 326 325 323 321 319 321 321 321 321 322 326 323 321 322 320 320 319 319 317 316 318 318 320 321 322 322 323 324 325 327 328 328 329 327 322 319 325 328 322 317 315 314 313 311 309 309 312 312 311 312 312 313 315 312 313 317 316 319 318 316 316 322 330 331 332 333 334
310 313 314 315 316 318 319 319 318 317 318 318 319 318 318 320 324 326 327 327 326 326 324 322 321 320 322 323 322 322 322 323 322 322 322 321 321 320 321 320 318 319 319 321 321 322 323 323 324 324 327 328 328 328 324 322 322 324 328 324 318 315 314 312 311 310 309 311 310 309 312 314 314 312 311 313 315 314 319 321 319 320 325 329 329 331 333 335
308 312 314 315 315 317 317 318 319 319 320 320 319 318 318 318 321 325 326 327 326 326 323 321 321 321 323 323 322 324 323 321 321 322 321 322 322 321 322 320 318 319 320 321 321 323 323 323 324 324 327 327 327 326 321 326 328 324 326 323 318 316 314 312 312 311 310 309 308 310 314 314 311 310 312 314 314 316 317 319 322 323 325 328 328 330 333 335
307 310 314 315 314 315 314 315 318 319 320 318 318 319 319 317 318 322 325 327 326 325 322 321 322 322 323 323 323 325 323 321 321 321 322 322 323 322 321 319 317 319 321 321 321 322 322 323 324 324 326 325 326 324 321 326 325 322 324 321 318 317 314 313 314 312 309 309 309 311 316 313 309 310 314 315 313 315 315 319 323 323 323 327 328 330 333 334
306 308 312 314 314 315 314 315 316 317 316 314 315 318 319 318 317 319 323 326 326 325 322 321 323 323 323 322 323 324 322 321 320 321 322 322 323 321 319 318 317 319 320 320 322 322 323 324 323 323 325 325 324 322 320 321 319 318 321 321 320 318 318 315 315 314 312 313 310 311 314 311 309 310 314 315 313 314 314 319 323 323 322 325 328 330 332 334
308 307 310 313 314 315 315 315 315 315 315 313 313 315 317 318 318 317 319 324 326 325 323 321 322 323 322 323 323 323 322 321 320 321 322 322 323 321 318 317 317 318 319 320 322 321 321 323 322 323 324 324 323 321 321 318 315 316 318 323 322 319 320 319 319 317 315 317 311 310 316 314 312 311 313 314 313 314 314 317 322 323 323 324 327 329 330 333
309 308 309 311 311 312 314 314 315 314 315 315 313 314 317 318 318 317 317 320 325 325 323 322 322 322 323 324 323 322 322 321 321 322 323 323 322 321 319 318 317 317 317 318 320 319 320 321 322 322 320 321 322 320 319 314 314 316 317 323 323 321 323 322 320 315 315 317 310 313 323 325 319 313 313 314 312 314 314 315 320 323 324 324 327 328 329 332
310 309 309 310 310 310 311 312 314 315 315 315 313 313 316 316 316 317 316 317 322 325 324 323 322 322 323 324 323 322 322 321 322 323 323 323 320 318 318 317 316 316 317 317 318 319 319 320 321 319 317 318 317 315 316 314 316 318 319 322 324 328 327 318 315 314 316 315 308 315 324 327 326 316 313 313 311 313 314 314 317 321 324 324 326 327 328 330
312 311 309 310 311 311 311 311 313 314 315 315 314 313 314 315 315 315 316 316 319 323 324 323 323 322 322 324 323 322 322 322 323 323 322 321 317 316 316 316 316 316 317 317 317 318 319 319 319 319 316 315 314 315 317 317 317 319 325 327 323 327 328 318 312 312 318 314 307 316 322 324 325 319 315 312 311 312 313 314 315 318 323 324 325 326 327 328
312 311 310 310 310 310 311 311 312 314 315 315 315 316 315 316 315 314 315 315 316 320 324 324 323 323 324 325 323 322 323 324 324 323 321 320 318 316 315 316 315 316 317 317 317 317 318 319 318 318 316 314 315 317 319 320 319 318 325 330 325 327 329 323 315 311 315 314 309 315 322 325 323 320 316 312 311 312 312 314 314 315 319 323 324 325 326 327
311 311 310 309 309 309 309 309 310 311 313 313 314 315 315 315 315 314 312 312 313 315 319 323 323 323 324 323 322 323 323 324 324 321 318 319 318 316 315 315 315 316 316 316 317 317 318 318 316 318 317 317 317 318 324 326 323 320 322 328 327 326 327 326 322 313 311 313 312 314 317 322 323 318 314 310 311 312 312 314 314 314 315 319 323 325 325 326
311 311 311 309 309 309 309 309 308 307 310 312 313 314 314 313 313 314 312 311 312 312 314 318 322 325 326 322 323 325 324 324 323 321 318 317 317 315 315 315 315 315 315 315 316 316 317 316 316 320 320 320 319 321 330 329 324 322 324 327 327 325 324 325 325 316 311 312 313 314 314 317 320 318 315 312 310 311 312 313 314 314 314 315 318 322 324 325
310 311 311 310 309 308 309 310 310 308 308 310 312 314 314 314 313 314 314 312 313 314 314 318 324 329 327 322 322 324 324 323 322 321 319 317 317 315 315 315 315 315 316 317 317 316 317 316 318 322 322 322 321 322 329 328 324 325 326 327 327 326 324 323 322 314 311 313 313 314 315 315 316 317 316 315 312 311 312 312 313 314 313 313 314 317 321 323
310 311 310 310 309 309 309 309 310 311 309 309 312 313 313 314 314 314 314 314 314 314 314 318 322 323 322 320 323 323 323 323 321 321 319 317 316 316 316 315 316 316 316 318 318 316 317 320 321 322 323 322 321 322 325 324 324 325 325 326 326 327 326 323 320 313 310 315 317 316 316 315 315 315 314 314 313 312 312 312 312 313 313 313 313 314 317 320
309 310 310 310 309 309 309 310 310 311 310 310 311 312 313 314 313 313 314 314 314 314 314 314 315 316 315 316 321 323 322 323 322 321 320 317 317 319 319 317 319 320 318 317 318 316 317 322 322 321 322 321 320 322 322 322 323 324 324 325 324 325 326 321 318 313 309 314 320 318 317 317 316 316 316 314 314 313 312 312 312 312 313 313 314 314 315 317
309 308 309 309 309 309 309 310 310 310 310 310 310 311 312 313 313 312 313 314 313 314 314 313 313 314 312 313 318 322 322 324 324 320 318 318 319 321 320 319 321 322 321 319 318 318 319 322 322 320 320 320 320 321 321 321 322 324 324 324 326 325 324 322 318 314 311 314 320 318 317 318 318 318 318 316 315 315 314 313 313 312 313 314 313 313 314 315
308 308 308 309 308 309 309 309 309 309 310 310 311 311 311 312 312 310 312 314 313 313 314 313 313 313 313 313 316 322 323 323 324 320 317 318 320 321 320 321 322 322 322 321 320 322 322 322 321 320 319 319 320 320 320 321 321 324 324 325 327 324 325 327 321 315 313 314 316 316 316 318 319 318 317 318 316 315 315 314 313 313 313 314 314 314 314 313
307 307 307 308 307 308 308 308 308 308 308 309 310 311 310 311 311 310 313 314 312 313 313 312 312 313 314 313 314 321 324 322 322 320 318 318 320 320 321 321 323 324 323 321 321 322 323 322 320 319 319 319 320 320 320 321 322 323 324 326 327 323 324 325 319 316 316 315 313 316 321 322 322 322 320 320 319 316 315 314 313 313 313 313 315 315 314 313
306 306 306 306 306 306 305 306 307 307 308 308 308 310 310 310 310 311 314 314 312 312 312 311 312 312 313 314 314 319 324 322 321 320 318 319 320 321 321 321 324 325 323 321 322 323 322 321 319 319 320 320 321 321 320 322 323 323 323 324 324 322 321 321 319 320 324 324 317 316 327 328 323 324 323 322 322 319 317 315 314 314 312 313 313 313 313 313
306 306 305 305 304 304 304 305 305 306 308 308 308 308 308 309 309 310 314 313 311 312 312 312 313 312 312 315 315 317 324 325 320 319 319 320 321 321 323 324 324 324 322 321 323 324 322 320 319 320 320 321 322 321 320 321 324 325 322 321 321 321 322 321 320 323 328 328 317 313 324 328 324 323 323 322 322 321 319 317 316 316 314 312 312 312 313 313
306 306 305 304 304 304 304 304 305 305 306 306 307 307 308 308 308 310 314 313 313 314 312 313 314 313 314 316 317 320 327 326 321 319 319 321 322 321 324 324 324 324 321 322 327 325 321 321 321 321 322 323 323 322 320 320 324 326 322 320 320 320 322 322 322 324 325 323 318 314 319 324 324 323 321 320 320 320 320 319 319 318 315 314 313 312 312 312
305 305 304 304 304 303 303 305 305 305 305 306 306 306 308 309 308 310 313 313 314 314 312 314 315 314 316 318 318 320 324 323 322 321 318 321 322 321 325 324 323 324 322 325 330 324 320 322 321 321 323 324 324 323 319 319 323 323 320 320 320 320 321 321 321 322 319 319 323 321 317 324 327 321 318 319 319 320 320 319 319 318 316 316 315 314 313 313
304 304 304 304 304 303 304 305 306 306 306 306 306 306 308 308 308 311 311 311 315 315 313 315 316 316 319 321 319 319 322 323 323 321 318 320 319 318 323 324 322 324 323 323 325 322 320 321 320 321 323 324 324 322 318 319 321 318 318 319 318 318 318 319 320 320 317 319 325 323 318 325 329 322 320 320 320 321 321 320 320 319 318 317 315 315 314 313
303 303 303 304 304 304 304 305 305 306 306 306 307 308 309 308 308 311 310 311 316 317 316 317 317 319 320 321 321 321 322 322 321 319 319 320 317 316 320 321 322 325 322 319 317 317 317 318 321 322 322 322 322 319 318 319 318 316 317 317 316 315 315 316 317 316 320 324 325 321 318 323 328 326 323 321 319 319 320 320 320 320 319 317 315 315 315 313
303 303 303 304 304 304 304 304 305 306 306 306 307 308 309 308 308 308 309 313 318 318 318 317 318 320 319 319 321 322 323 321 320 320 320 320 319 318 321 323 324 324 322 320 317 315 316 319 322 320 318 319 319 318 317 316 315 316 317 317 317 317 316 317 316 317 325 329 323 319 318 321 327 326 321 319 316 315 316 317 318 319 319 318 316 314 314 313
303 303 303 304 304 303 304 303 304 304 304 304 307 308 308 308 308 306 308 313 315 315 318 318 319 320 317 317 319 322 324 322 320 321 321 321 320 320 323 324 324 324 324 323 320 317 319 320 318 315 315 317 319 319 316 315 315 316 317 320 324 322 322 324 322 321 326 325 317 316 318 320 325 323 319 318 317 317 316 315 315 316 317 318 317 315 314 313
302 302 303 303 303 303 303 303 302 302 303 304 306 307 308 307 307 307 308 310 310 312 317 318 320 320 317 317 318 320 324 323 322 321 320 322 321 320 323 323 322 325 326 324 320 318 320 319 315 315 316 317 321 321 317 316 316 316 319 324 327 324 326 330 325 323 325 321 312 312 317 320 322 320 318 318 318 319 317 314 314 314 315 316 317 316 314 312
301 302 302 303 303 302 302 303 303 302 304 305 305 306 307 307 307 307 307 309 310 312 314 316 320 320 318 318 318 319 322 322 322 322 322 323 323 321 323 323 321 322 324 323 320 319 323 322 318 317 317 318 321 321 318 316 316 317 319 325 326 324 328 330 328 326 326 319 312 312 318 323 323 318 314 313 314 314 313 311 312 312 313 313 313 312 311 309
301 301 302 302 302 302 302 303 303 303 305 305 304 306 307 308 308 306 305 308 312 314 314 315 319 320 319 319 319 320 321 320 321 323 323 323 323 322 323 323 322 320 323 325 321 319 324 323 317 316 316 317 321 320 316 317 318 318 319 323 325 324 323 323 321 320 319 317 314 314 317 320 318 315 313 313 314 312 312 311 310 310 311 312 312 311 310 309
301 301 301 301 301 302 302 302 302 303 305 305 304 305 307 307 306 306 305 307 312 315 316 317 318 320 320 320 319 320 319 318 320 323 324 323 323 323 322 321 321 320 322 324 321 321 324 320 315 314 314 315 319 319 315 319 320 319 320 322 321 318 318 318 317 313 314 321 321 315 316 317 316 318 316 316 317 315 315 315 312 311 310 311 312 313 313 312
300 300 300 301 301 301 301 301 301 303 304 304 303 303 305 305 305 307 309 309 311 314 317 319 319 319 320 320 319 319 319 318 318 320 323 323 322 323 322 320 320 320 320 321 320 321 322 318 312 314 316 315 316 316 316 319 319 318 321 320 316 315 316 318 320 316 316 324 323 316 317 319 319 322 318 314 316 316 316 316 314 314 312 311 311 313 313 313
300 300 300 300 300 300 300 300 302 303 303 304 303 303 303 304 304 306 309 311 311 312 314 316 318 318 319 320 319 319 319 319 318 318 321 322 322 322 321 320 319 319 319 320 320 319 319 317 312 312 315 314 313 316 318 318 316 316 319 318 317 320 320 317 319 320 320 324 323 317 315 316 318 320 317 315 315 315 314 315 315 315 315 313 311 312 312 312
300 300 299 300 299 299 300 301 302 302 302 303 303 303 303 303 304 304 306 308 310 311 311 313 316 317 318 319 319 319 319 320 319 318 320 322 321 321 321 321 319 318 318 319 320 319 318 319 314 311 312 313 313 317 319 318 314 312 315 318 318 320 321 318 317 319 322 323 323 320 316 316 318 317 316 317 316 315 317 316 316 316 316 315 313 313 314 313
300 299 299 300 299 299 300 301 302 302 301 303 303 303 303 303 304 304 304 305 308 311 311 311 313 315 317 319 320 318 318 320 320 319 319 320 320 320 320 320 319 318 318 318 319 319 317 319 317 311 310 313 314 316 319 319 315 313 316 319 318 315 316 318 317 315 318 321 321 322 322 320 316 314 315 317 317 317 318 317 316 317 316 314 313 315 316 317
299 298 299 300 299 300 301 301 301 301 301 302 302 302 303 303 303 304 304 304 307 311 312 311 311 313 314 318 320 319 317 318 318 318 318 319 319 321 321 319 319 319 319 317 318 318 318 318 316 312 311 314 315 315 317 318 315 315 316 318 319 316 315 321 322 315 314 317 317 318 321 321 315 312 313 314 316 316 316 316 315 316 315 312 314 317 318 318
298 298 299 300 300 300 301 301 301 301 301 301 301 302 302 303 303 303 304 304 305 309 312 312 312 313 313 315 317 318 317 317 317 318 319 319 319 321 320 317 318 318 317 317 317 317 316 315 315 313 312 314 313 312 314 317 315 315 315 317 318 317 316 322 324 318 314 314 313 313 317 320 316 312 312 314 315 314 313 313 312 313 312 311 313 317 317 314
298 298 298 299 300 301 300 300 301 300 300 300 301 301 302 302 303 303 303 304 305 306 309 311 312 313 314 314 314 315 317 317 317 317 318 319 319 320 319 318 318 317 316 319 318 316 316 315 314 313 312 311 311 310 312 315 315 315 314 315 316 317 317 317 316 316 317 315 315 316 318 320 316 314 314 313 313 312 311 310 309 310 310 310 311 315 318 317
298 298 298 299 300 300 300 301 301 300 300 301 301 301 302 302 302 302 303 303 304 305 307 309 311 312 315 315 314 315 317 318 317 315 317 319 320 319 318 318 318 318 317 318 318 317 318 318 316 315 315 314 314 313 312 312 313 314 315 314 315 317 317 313 310 313 317 318 318 319 322 320 315 313 313 310 309 310 309 308 308 308 310 310 310 313 316 316
297 298 298 298 296 297 299 301 300 300 300 301 301 301 301 302 302 302 303 303 304 305 306 307 310 311 314 315 316 316 317 318 318 316 317 319 319 318 318 317 317 318 317 318 318 318 319 319 316 317 318 317 317 317 315 313 312 313 314 314 315 316 316 314 313 314 318 319 319 319 322 319 312 310 311 310 310 310 309 309 308 307 309 309 310 314 314 313
297 297 298 298 296 296 298 298 299 300 300 301 301 301 301 302 302 302 303 303 303 304 305 306 308 310 313 314 315 316 317 317 317 317 317 319 319 316 316 316 316 317 318 319 320 318 318 318 317 318 320 318 318 318 316 315 313 313 314 314 315 315 315 315 315 316 317 318 317 319 320 318 314 310 310 311 310 311 312 312 309 309 312 311 310 312 311 310
297 297 297 298 298 298 298 298 298 299 299 300 301 301 301 302 302 303 303 303 304 304 305 306 308 310 312 314 315 316 316 316 316 315 315 317 318 316 315 316 316 317 318 318 318 316 316 318 319 319 321 319 317 318 316 315 315 314 314 314 314 315 316 317 317 317 317 317 318 318 319 319 317 311 311 313 311 312 315 313 309 310 314 313 310 311 311 311
297 297 297 298 299 298 298 298 298 298 299 299 300 301 302 302 302 303 303 303 304 304 305 306 307 309 311 313 315 315 316 316 316 315 315 315 315 315 316 315 316 317 317 315 315 316 317 319 319 319 321 320 318 317 316 315 315 314 314 314 314 314 315 316 317 317 317 318 319 319 318 320 318 313 312 313 312 313 314 312 308 308 311 312 313 316 318 316
296 297 298 298 298 298 299 298 298 298 299 299 300 300 301 302 302 303 303 304 304 305 305 306 306 308 310 312 314 314 316 317 316 315 315 314 314 315 317 316 316 316 316 314 314 317 319 319 319 319 320 318 316 316 315 315 316 315 314 314 313 313 314 315 316 316 316 317 318 318 318 318 317 315 312 312 313 313 311 308 306 307 310 312 315 319 321 320
297 297 297 297 297 298 298 298 298 298 299 299 300 300 300 301 302 302 303 304 304 305 306 306 306 307 309 311 313 313 314 316 316 316 315 315 315 315 316 317 316 315 316 315 314 316 319 320 319 319 320 317 313 315 317 316 316 316 314 314 313 313 314 315 315 315 316 317 316 317 318 317 316 315 313 313 314 311 309 309 310 310 311 312 314 316 319 322
296 297 298 297 297 298 297 297 297 298 298 299 299 300 301 301 301 302 303 304 304 305 306 306 306 307 308 310 312 312 313 314 315 315 315 315 316 316 317 317 316 315 315 315 315 315 316 318 319 318 320 317 312 312 316 316 315 316 315 314 314 313 314 314 314 315 316 317 317 317 318 317 315 313 313 314 313 311 311 312 312 313 313 313 315 315 316 321
294 295 297 297 297 297 297 297 297 297 298 298 298 299 300 301 301 301 303 304 304 304 305 306 307 307 307 308 310 312 313 313 314 315 315 315 316 317 318 317 315 314 314 314 315 316 316 317 317 317 320 320 313 311 314 315 316 316 315 314 313 313 313 314 314 314 314 315 317 317 316 316 314 313 313 313 312 311 312 313 312 313 315 314 314 314 315 318
Wind_Speed
23 24 24 24 26 26 22 22 28 30 30 30 32 33 33 32 31 30 29 28 27 25 24 24 25 27 29 30 30 30 27 24 20 15 10 12 12 7 8 13 15 17 16 15 15 12 10 7 8 7 6 4 1 0 1 1 1 2 2 4 5 6 5 5 7 4 1 3 3 3 6 6 4 5 3 2 5 2 3 5 3 2 3 1 4 3 12 20
22 22 23 22 23 27 25 20 22 28 31 30 32 33 33 33 31 31 30 29 29 27 25 26 27 28 28 28 28 29 26 23 19 17 22 23 13 8 11 13 14 16 16 14 13 11 9 7 8 7 4 2 0 0 2 1 1 3 2 4 6 4 3 2 4 4 1 3 4 2 4 5 2 5 5 5 7 5 6 7 5 6 7 4 2 5 16 20
21 20 22 23 21 24 27 21 16 21 29 30 31 33 33 32 31 32 31 30 30 28 26 27 28 28 27 26 25 24 21 18 13 16 32 31 16 9 13 14 15 15 14 12 11 11 7 7 9 7 4 3 1 1 3 2 2 3 2 6 6 3 2 1 3 3 1 2 2 2 3 4 2 3 5 5 5 6 9 9 8 10 11 8 6 9 16 19
19 19 20 22 21 21 25 23 15 15 24 29 30 32 34 34 32 32 32 32 31 30 27 27 29 29 29 26 24 22 17 10 9 19 33 34 24 16 15 16 16 17 16 13 13 11 7 7 8 4 4 4 2 2 5 4 3 3 5 8 2 4 3 3 3 3 2 1 1 3 4 4 2 2 4 6 5 6 10 11 11 12 10 11 10 12 17 20
19 19 18 19 20 20 20 22 17 11 15 22 27 29 32 35 34 33 34 33 32 31 28 27 29 28 28 26 25 24 15 4 7 21 32 33 31 22 17 19 18 16 16 16 15 12 10 7 6 4 3 4 4 4 7 5 2 3 7 5 3 4 4 2 2 2 3 2 2 4 3 3 3 3 7 8 8 5 4 6 10 10 6 12 13 14 18 19
18 18 18 17 18 19 19 19 17 12 10 12 20 24 28 32 35 35 34 34 33 32 30 28 29 29 28 26 27 26 15 4 3 14 27 30 33 27 21 21 20 19 18 18 15 12 10 6 6 7 4 4 8 7 5 6 3 5 8 4 3 3 3 3 3 2 3 3 4 3 1 3 4 5 6 9 11 5 3 1 3 4 4 13 15 16 17 18
18 18 19 17 15 16 17 17 16 15 11 9 13 19 23 26 33 37 35 35 34 32 31 30 31 30 30 28 27 20 12 7 2 7 20 28 33 33 27 22 22 21 18 18 16 12 10 9 7 6 6 4 8 8 4 5 4 7 8 5 5 3 2 2 4 3 3 3 2 1 0 3 7 4 3 7 14 10 2 3 1 0 5 13 15 15 17 19
18 17 17 17 16 14 15 16 16 16 13 10 8 10 17 21 28 36 37 37 35 34 32 31 33 33 34 28 18 11 10 11 5 4 16 28 33 35 30 23 22 21 20 19 17 14 10 10 9 5 8 6 5 7 6 5 5 9 9 4 4 3 2 0 1 3 3 3 0 1 5 7 5 1 2 8 13 13 4 3 2 3 7 11 13 14 15 16
18 17 16 17 17 15 13 14 14 15 13 10 7 4 8 16 23 29 38 39 36 36 33 33 35 35 35 24 12 9 12 21 13 1 10 29 34 34 32 26 26 23 19 19 17 17 11 9 10 5 6 5 5 8 9 8 5 10 11 3 4 4 2 0 3 4 2 3 2 4 10 7 3 1 6 12 13 8 3 4 4 6 8 10 11 13 14 14
17 17 16 16 16 16 15 15 14 15 13 10 6 3 2 10 17 21 32 40 38 37 35 35 36 36 32 19 13 10 12 26 23 5 6 26 33 32 31 28 29 24 18 18 18 18 12 11 11 4 1 1 3 6 8 9 1 4 9 4 4 2 1 1 3 3 1 3 5 8 11 3 4 3 7 8 6 3 4 5 5 7 10 11 11 12 14 15
16 16 16 15 15 16 16 16 15 14 13 11 7 4 1 4 11 16 24 36 41 39 37 38 36 36 29 16 14 9 8 24 27 14 9 22 32 29 29 30 28 24 18 14 14 17 11 10 14 6 1 4 4 4 5 5 2 1 6 4 6 5 5 5 6 5 2 4 7 8 10 2 4 7 9 5 2 3 6 7 6 9 10 10 11 11 12 14
16 15 15 15 15 15 14 15 16 15 14 14 13 10 5 2 6 12 16 27 40 42 39 40 37 34 24 11 12 9 9 23 28 20 13 18 28 28 27 29 26 23 22 14 9 14 10 12 18 7 2 8 7 3 4 4 3 3 5 4 6 5 8 10 11 8 5 6 7 5 8 8 9 10 10 6 3 4 6 8 7 9 9 9 10 9 9 12
16 15 15 14 14 15 14 13 14 15 15 16 16 13 10 5 3 8 11 17 33 44 41 40 38 33 20 8 12 14 12 22 27 21 18 19 24 27 26 26 25 24 26 20 13 15 13 13 16 6 2 7 6 3 4 6 3 5 4 4 4 4 7 11 11 7 7 6 8 6 8 11 12 13 12 7 6 7 8 9 9 8 8 8 8 8 9 11
16 16 15 14 14 14 14 13 13 14 16 17 18 16 13 9 6 5 6 10 22 39 43 40 40 33 18 6 11 19 16 20 26 23 23 23 22 22 23 25 25 23 24 24 21 19 16 13 10 4 2 1 3 5 7 6 3 5 5 3 4 5 4 6 7 8 9 5 7 9 9 11 9 10 12 7 7 9 10 11 10 8 8 8 8 8 9 11
16 16 16 15 15 14 14 14 13 13 14 16 19 17 15 13 12 8 6 7 11 29 43 40 38 27 10 4 10 21 20 19 26 27 27 26 25 19 18 21 18 17 21 21 21 17 15 13 8 5 2 1 4 8 6 5 4 4 4 4 4 5 3 4 5 10 11 3 7 10 7 11 11 9 8 7 9 11 11 13 11 10 10 9 9 9 9 10
16 16 17 16 15 14 14 14 14 14 13 14 16 15 14 12 13 13 11 8 7 18 36 35 34 23 7 5 12 21 19 17 24 28 28 28 27 20 18 19 14 13 17 17 19 18 16 12 5 2 3 2 6 7 6 4 4 4 5 4 5 7 6 4 5 9 9 2 7 12 8 9 9 9 7 6 9 12 12 14 12 11 10 9 9 9 9 9
17 16 17 16 16 14 14 14 13 15 14 13 12 11 12 9 8 10 12 12 11 11 17 22 34 24 5 7 15 18 16 15 26 30 28 27 28 27 23 17 14 15 15 15 16 15 12 7 2 2 2 3 6 7 7 6 5 4 4 3 5 9 7 4 4 4 7 5 9 13 12 15 12 7 5 3 6 9 10 13 12 11 9 8 8 8 9 9
18 16 17 16 16 15 13 13 12 14 15 15 14 12 11 9 8 5 8 12 9 10 12 10 26 17 4 10 13 15 19 21 29 32 28 26 30 31 24 16 15 18 15 9 8 7 6 3 2 4 3 5 7 8 8 6 8 8 8 6 6 8 7 6 3 3 7 8 10 12 12 19 20 13 9 7 7 7 10 12 12 11 10 9 7 8 9 9
18 16 17 16 17 16 14 13 12 14 16 16 16 15 13 10 7 4 5 7 4 4 6 6 14 6 0 13 11 14 26 30 29 29 27 26 30 28 20 17 17 16 12 5 5 6 5 4 3 5 7 9 10 11 9 8 14 14 11 8 5 7 7 5 3 3 4 7 10 14 14 17 20 17 14 12 8 8 10 11 11 10 9 9 8 8 9 10
18 16 16 16 17 16 14 13 12 13 15 17 17 14 10 8 6 3 4 6 4 6 7 8 6 1 5 6 12 19 26 30 25 22 27 27 27 23 13 13 13 9 10 9 9 8 6 6 7 8 10 13 14 15 9 7 13 12 8 6 4 6 6 4 4 3 3 5 10 13 15 16 18 18 16 13 11 10 11 12 12 11 10 9 9 10 10 12
19 17 17 17 18 17 15 13 11 12 14 18 18 9 5 6 5 3 4 4 5 6 10 11 4 3 3 3 10 22 16 17 19 16 27 30 24 19 8 9 12 7 9 12 11 8 6 9 11 11 13 14 16 16 8 4 7 8 6 6 5 6 4 2 3 3 3 4 9 11 13 16 18 19 16 12 11 14 15 15 14 14 13 10 10 12 11 10
19 17 16 17 17 17 16 14 12 12 13 16 16 6 1 4 6 7 6 3 4 6 8 8 2 4 5 9 10 24 15 9 17 15 25 30 19 14 10 11 13 10 9 10 10 9 10 11 12 12 12 13 13 13 9 5 6 7 6 5 5 5 3 3 3 3 3 3 8 10 11 15 17 18 18 15 14 15 16 16 14 13 14 13 11 12 11 10
19 18 16 15 16 16 17 16 14 13 11 12 12 6 2 5 10 12 6 2 3 6 6 6 3 6 7 9 11 22 19 13 17 16 25 27 15 13 15 14 13 11 12 12 11 11 10 11 14 13 12 13 11 11 10 6 6 6 6 6 5 5 4 5 3 3 3 4 7 10 12 13 15 16 18 19 18 16 15 16 16 13 14 15 13 11 11 13
20 19 17 16 16 15 16 15 13 10 9 9 7 7 6 5 9 11 6 2 3 5 8 8 5 5 10 11 13 13 15 14 14 17 23 23 15 12 14 17 15 12 13 16 16 12 5 7 16 16 15 16 14 13 13 9 7 8 9 9 5 6 7 3 1 1 3 5 4 8 12 11 13 16 16 16 16 16 16 16 16 14 13 14 14 12 12 13
19 18 17 17 15 15 16 13 10 9 8 6 5 8 7 5 8 10 5 1 4 3 7 8 6 8 11 12 13 8 8 11 11 17 23 22 18 13 11 13 11 12 17 20 18 11 5 11 18 18 17 19 16 14 15 11 7 7 10 11 6 7 7 2 2 2 5 6 3 3 10 7 5 11 12 9 9 11 13 15 17 16 14 14 13 13 13 12
17 17 17 16 14 15 13 7 8 11 8 4 5 8 10 5 7 8 3 1 4 2 7 9 5 10 12 9 7 5 8 10 11 21 27 23 18 12 10 8 3 11 19 17 12 6 5 14 19 19 19 19 15 12 15 14 8 6 9 10 8 8 8 6 5 2 4 6 1 2 8 7 3 7 9 7 9 11 11 14 18 17 16 15 13 12 12 12
16 16 16 15 14 14 8 5 10 12 6 3 8 9 10 10 6 4 2 2 5 3 8 8 4 11 13 9 11 8 7 10 12 17 24 25 21 11 11 11 5 10 13 10 8 4 9 17 18 19 19 16 14 11 14 15 9 4 10 14 11 11 10 9 7 6 4 4 3 5 6 9 10 8 10 11 13 15 14 15 17 16 16 16 15 14 13 14
15 15 16 14 14 12 7 10 13 9 4 4 10 12 10 13 10 4 2 4 3 4 6 6 6 13 10 7 15 10 4 14 14 12 19 26 20 9 12 16 12 13 12 10 8 2 9 18 18 18 15 12 13 11 15 18 9 2 10 13 12 11 9 8 7 5 1 3 7 7 5 7 10 4 7 10 12 13 16 18 17 15 17 18 18 17 16 16
14 14 15 14 14 12 8 12 12 7 6 6 10 15 14 15 10 2 3 5 1 2 3 5 7 11 8 6 13 12 7 8 9 10 16 17 8 1 8 15 14 15 10 5 5 1 5 14 18 18 13 12 13 11 17 19 9 4 10 10 7 5 3 3 4 3 2 4 8 7 8 6 10 4 8 8 9 13 14 15 14 14 17 16 16 17 15 13
14 14 14 15 15 14 10 10 9 9 9 7 10 18 18 13 5 2 6 6 2 1 3 6 6 10 13 10 10 13 12 3 4 12 13 8 3 1 2 6 8 12 7 1 2 2 3 4 8 10 7 8 10 10 12 14 9 10 11 10 8 4 3 2 1 2 4 7 6 9 11 5 8 4 7 6 5 9 10 9 9 12 14 14 14 15 15 13
14 14 15 15 15 16 13 8 10 12 8 7 13 17 12 6 2 5 7 1 4 3 6 7 7 11 18 17 10 12 13 4 7 16 13 7 5 2 5 6 3 7 7 2 1 2 7 7 5 2 1 6 12 9 5 8 11 11 9 9 8 3 2 1 1 3 7 6 3 9 12 10 9 4 4 3 1 4 7 7 9 10 11 11 12 13 14 12
15 14 15 14 14 15 11 8 13 15 8 7 12 9 5 4 3 5 5 3 3 4 7 9 9 11 16 17 12 12 10 6 9 15 15 12 8 7 11 10 9 9 10 10 6 5 8 7 4 3 2 9 14 9 4 5 10 8 8 11 7 4 3 4 4 4 7 4 2 5 7 9 13 9 4 6 7 9 10 9 10 11 11 12 11 11 10 8
14 14 14 13 13 13 10 8 13 17 13 10 9 4 3 5 6 6 5 1 1 2 3 7 12 14 16 15 12 12 9 7 12 15 14 14 12 11 11 11 13 9 6 10 9 7 5 1 1 5 4 10 13 11 6 5 8 8 8 10 7 5 5 6 5 3 5 3 2 4 2 6 12 8 8 12 13 15 11 8 11 12 13 13 9 6 4 4
14 13 13 13 13 13 13 12 13 17 17 12 6 3 4 6 7 10 9 3 1 1 1 4 11 16 15 12 10 11 8 6 15 18 14 13 12 11 10 11 14 7 5 9 6 7 8 1 6 10 5 10 14 10 10 10 8 7 6 7 6 6 6 6 6 5 4 1 3 5 3 6 7 2 3 6 8 10 9 7 9 11 11 10 6 5 4 4
14 14 13 12 12 13 15 13 12 17 16 9 5 5 6 6 6 9 9 4 1 0 2 3 9 13 12 10 9 11 6 2 12 17 14 13 12 13 12 12 17 12 9 11 5 6 9 2 7 8 2 13 17 9 13 15 9 7 5 5 6 6 4 2 1 1 2 1 3 6 5 6 4 6 9 10 9 9 10 9 9 10 11 8 7 8 7 6
14 13 11 10 11 12 15 13 12 15 12 6 6 7 6 5 3 4 6 6 4 4 3 3 6 9 8 7 7 10 7 1 7 10 10 14 14 16 17 11 16 18 12 11 6 7 10 3 6 6 2 10 14 10 15 14 8 7 7 6 3 1 2 2 1 2 2 4 5 6 7 7 5 11 12 13 14 13 12 12 10 9 9 8 9 9 7 7
13 11 9 9 12 14 16 15 14 14 8 5 7 8 6 6 5 4 3 4 6 6 6 6 7 7 5 5 7 12 10 3 5 5 6 12 11 15 17 9 13 19 15 11 5 5 9 3 1 6 7 7 4 8 13 8 6 8 8 7 4 3 1 2 4 2 3 7 4 6 11 8 3 6 3 5 10 12 13 14 12 9 7 8 10 9 8 8
12 8 6 10 15 17 18 19 17 11 5 5 8 8 8 8 8 6 2 1 4 5 5 4 5 7 6 5 6 12 13 8 6 3 4 8 6 11 17 11 12 19 16 13 6 4 9 6 1 3 8 6 2 7 9 6 4 5 6 9 6 2 4 6 5 4 6 7 4 5 9 8 9 9 3 4 7 7 9 10 10 12 11 8 8 8 8 7
10 5 3 12 19 20 22 23 16 7 3 6 9 8 7 8 10 9 6 4 3 4 5 4 3 4 5 6 5 8 12 11 9 4 4 6 3 9 17 12 11 19 18 14 8 6 7 5 3 2 3 7 5 6 9 8 5 2 4 10 7 4 5 6 4 2 4 6 5 4 4 6 9 9 7 11 11 11 12 9 8 13 12 7 6 6 5 5
7 3 1 13 25 27 29 22 10 5 5 7 9 8 7 8 9 9 9 9 5 2 4 6 5 3 4 5 6 6 7 9 9 6 4 6 3 6 16 13 10 17 18 12 8 8 6 2 5 4 2 6 7 7 10 12 10 6 8 12 9 4 2 2 3 2 2 5 6 5 6 7 5 5 8 13 14 15 15 10 9 10 7 4 5 5 4 4
5 3 1 14 31 34 29 15 5 7 7 7 9 10 9 8 7 9 11 11 8 1 1 4 6 5 3 4 3 4 5 4 6 6 4 7 6 4 12 16 13 16 15 10 8 9 5 3 7 9 6 8 9 6 6 9 11 9 8 11 11 7 5 5 7 5 3 4 3 3 7 7 2 5 8 11 12 12 9 7 8 8 4 3 4 5 4 4
4 4 4 19 37 35 20 8 6 8 7 9 10 10 9 7 7 10 10 10 10 5 2 3 7 7 5 5 5 2 5 5 6 6 3 8 12 8 12 18 17 17 14 10 11 8 3 4 7 7 6 5 4 2 0 4 9 9 6 8 10 9 7 8 8 5 4 2 1 0 6 6 2 5 7 8 6 4 2 3 6 6 5 4 4 4 4 5
5 3 5 26 43 32 13 6 8 8 7 9 10 10 9 7 8 10 10 11 11 7 6 6 5 6 5 7 7 4 4 5 7 8 5 7 12 9 12 19 20 19 15 10 10 6 3 5 6 5 3 3 3 1 1 0 4 7 9 8 9 11 10 5 2 2 5 5 3 3 6 7 1 2 4 4 3 3 2 3 6 7 5 4 5 6 4 4
5 2 2 21 32 21 9 7 9 9 9 10 12 12 11 9 11 13 11 12 10 7 10 8 4 6 4 5 8 7 7 6 5 9 8 6 6 4 9 19 20 17 14 11 11 9 5 7 8 7 5 2 1 2 3 3 7 10 11 9 10 11 7 3 1 1 4 9 9 7 9 8 1 2 2 3 3 5 6 4 5 6 6 5 5 5 4 3
5 2 0 9 10 4 4 4 6 9 11 11 13 14 13 11 12 15 15 14 13 11 11 9 6 7 5 4 7 9 10 7 4 6 7 5 3 2 8 20 20 16 15 14 14 10 7 8 10 10 10 8 8 11 11 9 7 5 7 10 13 14 11 7 3 3 6 10 11 10 11 5 3 2 3 4 4 6 7 4 4 5 6 6 5 5 4 3
5 3 2 4 2 1 3 2 3 7 9 10 10 11 15 14 11 15 17 15 15 15 12 9 10 10 9 8 8 8 10 9 4 2 5 6 4 2 7 19 21 19 17 14 13 8 3 7 13 12 13 13 14 16 15 13 11 10 15 19 17 17 16 10 4 8 11 7 7 14 17 6 2 5 6 6 6 6 6 4 3 4 5 5 5 5 4 3
4 4 5 5 3 4 5 5 7 8 9 11 8 7 15 18 13 13 16 14 15 16 14 12 12 12 12 11 9 7 9 9 6 3 5 6 3 2 4 15 21 23 17 11 9 6 3 8 16 16 17 16 10 9 13 16 18 20 22 22 19 18 19 14 13 17 12 5 8 20 21 14 9 8 8 9 8 7 6 4 4 3 4 3 2 3 5 5
3 3 6 5 3 5 6 8 10 11 13 13 9 8 15 18 16 13 13 13 16 17 14 13 16 17 14 13 11 9 9 9 8 8 6 4 1 0 3 8 14 16 13 7 5 4 4 9 15 16 16 12 5 10 16 17 16 17 18 20 20 20 21 20 21 20 12 10 15 13 13 18 15 9 10 11 9 7 6 2 3 3 3 4 3 3 4 4
2 0 2 3 3 6 7 8 11 13 14 13 10 12 15 17 19 16 12 11 15 18 17 16 19 21 19 16 12 11 10 9 9 10 9 6 5 4 4 4 5 7 8 6 4 3 4 8 11 13 14 8 3 8 18 18 14 14 17 20 21 21 23 23 23 20 16 19 21 8 5 15 16 12 12 10 5 4 2 1 2 3 3 4 3 2 4 3
3 1 2 2 3 5 5 6 9 10 11 12 12 13 15 18 21 17 14 14 15 16 19 21 21 22 22 20 16 16 14 10 11 13 12 11 8 7 7 6 5 7 9 8 5 3 5 8 10 11 11 7 2 5 13 18 17 17 18 20 20 20 21 22 22 19 17 22 24 13 10 15 12 10 9 7 3 2 4 7 7 5 4 4 4 3 3 3
4 2 4 2 4 6 5 6 8 9 10 11 11 12 14 21 23 19 17 19 21 18 19 26 27 21 21 24 23 22 18 15 18 18 15 15 13 9 7 5 7 11 10 9 9 7 6 6 8 8 9 8 7 7 11 14 15 15 15 17 20 21 21 22 22 20 19 21 20 15 16 16 9 9 6 6 5 6 9 11 8 6 5 5 6 5 3 4
4 2 3 2 4 6 7 8 9 10 9 11 14 16 17 20 23 21 16 16 24 25 21 26 28 20 20 27 27 24 21 20 21 17 12 12 11 8 6 3 6 12 13 11 10 9 8 7 7 9 10 9 8 8 9 9 8 9 14 21 27 28 26 22 20 19 21 20 17 16 16 9 8 12 10 8 7 9 11 10 8 8 7 5 6 6 5 5
Wind_Direction
232 229 226 223 224 233 233 224 217 212 214 214 211 210 210 212 209 205 205 204 205 206 202 198 196 194 193 195 196 195 193 191 194 204 216 205 207 222 195 178 164 160 161 155 151 143 133 138 128 131 143 116 357 129 121 17 69 210 207 216 223 207 197 185 180 180 85 84 113 164 196 210 169 161 171 166 204 195 168 209 220 212 236 337 32 65 144 153
230 226 225 221 217 226 230 231 228 214 210 213 211 208 209 210 209 205 204 205 205 205 202 198 196 193 191 194 197 198 196 193 195 208 214 200 192 220 209 193 177 166 161 154 152 150 148 149 143 154 161 152 257 135 191 165 220 220 189 227 230 199 182 173 178 181 171 106 108 136 202 227 204 154 168 203 197 185 213 214 206 224 210 176 71 125 150 158
226 224 222 219 211 218 225 229 237 222 210 209 209 208 208 208 207 206 205 204 205 205 202 199 197 193 190 188 190 192 185 185 197 220 216 201 184 202 211 206 192 183 177 163 152 145 143 149 153 163 170 175 153 164 197 170 211 213 197 237 227 167 171 198 197 192 167 130 132 129 161 222 230 152 170 209 201 189 222 221 202 223 212 173 141 150 161 166
218 220 219 217 209 209 220 223 226 229 218 210 208 207 207 208 206 206 206 204 204 204 202 199 198 195 191 186 187 185 166 174 212 222 217 204 194 197 203 202 191 194 198 184 167 146 119 136 151 155 176 182 136 183 194 178 199 172 207 239 193 139 193 185 197 204 160 196 253 125 140 203 194 170 199 198 200 209 230 231 223 232 208 162 154 164 171 173
210 215 215 214 208 201 208 216 215 225 227 215 213 209 205 206 206 205 206 204 203 203 201 199 197 195 193 189 190 179 162 187 212 214 219 208 200 196 195 195 185 188 188 175 162 137 120 133 146 138 188 185 153 191 199 180 165 185 219 242 95 155 203 146 149 181 152 175 193 158 177 176 132 194 219 206 216 229 233 235 235 242 195 156 163 169 175 182
205 207 210 210 207 199 197 207 209 213 229 222 217 215 207 205 204 205 206 204 203 202 199 197 193 190 189 184 180 174 172 201 147 200 213 205 199 195 193 193 186 183 177 165 149 138 135 142 174 174 187 190 178 192 184 166 185 223 225 213 148 189 209 118 121 154 155 176 181 184 193 128 158 209 216 218 237 251 67 58 257 264 184 158 162 169 179 187
202 200 202 202 202 202 197 200 202 202 216 222 217 219 216 208 202 203 205 203 202 201 198 195 190 184 180 172 171 179 195 213 117 176 196 195 197 195 194 193 190 189 182 167 153 162 165 163 192 188 182 187 192 198 159 154 206 240 231 195 180 197 222 131 119 156 193 206 175 113 169 196 209 213 181 215 241 250 136 91 18 327 160 156 164 178 186 189
198 197 196 194 194 198 196 193 191 190 196 203 206 216 220 214 203 200 203 204 201 199 197 192 189 183 177 169 169 194 213 206 178 140 180 185 190 191 190 189 192 190 182 173 164 167 160 167 181 175 198 201 186 187 158 160 201 233 234 186 165 184 210 127 131 197 217 234 142 171 234 236 220 176 223 225 241 247 202 130 135 138 157 167 179 186 188 190
193 193 192 190 189 189 194 194 190 185 178 180 183 186 219 216 208 201 201 203 199 198 196 190 188 183 179 172 174 203 209 204 200 69 177 183 184 187 186 182 184 183 174 171 167 156 145 177 183 163 206 199 177 176 170 191 209 220 225 191 168 184 173 229 250 221 208 232 180 219 246 242 174 118 250 239 240 239 164 165 177 158 174 185 191 190 191 194
189 190 190 186 183 183 192 201 193 180 173 168 165 155 195 209 213 207 199 200 200 197 193 189 185 181 180 174 185 207 199 202 208 234 187 182 184 184 185 183 179 178 170 166 168 160 158 184 173 130 106 154 197 177 178 201 206 207 215 220 205 208 208 224 265 239 195 233 194 227 257 242 142 216 239 234 235 211 162 188 191 190 198 196 195 194 195 198
185 186 188 184 179 177 184 195 191 184 193 200 198 199 200 209 216 211 200 199 200 197 192 189 184 180 181 177 195 210 175 194 206 211 190 179 182 182 183 185 179 177 169 159 169 169 169 164 148 126 135 158 170 168 194 199 53 121 186 218 235 251 258 238 256 241 216 235 195 222 264 239 150 222 234 222 144 161 197 200 194 209 214 205 201 195 195 203
181 180 183 182 177 174 177 185 187 190 198 204 208 209 216 231 214 213 211 202 198 198 193 188 186 181 180 189 207 202 166 187 196 194 181 174 182 185 185 186 180 179 171 153 162 173 166 152 154 157 165 155 144 155 202 173 109 140 163 217 217 231 248 234 239 225 212 226 174 194 267 241 210 216 223 216 170 181 214 214 204 211 218 213 207 200 200 203
177 176 176 176 175 175 175 176 179 185 184 186 196 201 203 205 210 213 217 208 198 197 194 189 188 182 179 203 208 197 180 184 189 181 172 174 180 183 187 187 183 185 182 172 171 176 173 165 169 169 120 165 157 135 140 127 141 154 170 241 199 219 242 220 220 202 209 221 155 175 261 249 225 216 213 195 168 189 220 225 214 209 215 215 209 208 208 202
172 173 171 168 170 171 173 175 173 175 179 184 192 196 197 204 227 223 225 226 201 195 194 189 185 183 189 201 182 192 189 181 185 175 170 173 170 172 179 181 183 188 190 185 179 180 177 167 164 135 63 212 160 138 127 122 183 160 153 230 213 231 221 175 193 184 201 212 151 186 251 259 240 214 207 181 166 194 223 230 221 210 209 212 211 212 214 207
171 169 169 165 165 165 167 172 172 170 171 177 185 192 197 205 219 228 234 234 213 195 190 186 183 179 191 219 172 184 183 174 177 173 173 171 159 160 170 169 168 175 183 184 178 175 168 154 137 125 97 341 157 154 143 138 184 169 171 195 194 229 213 149 173 191 205 201 162 192 242 259 252 229 197 160 175 200 225 235 227 218 211 206 211 212 217 216
175 167 167 166 163 165 167 167 170 171 166 165 165 169 177 186 202 219 226 229 266 202 182 178 181 178 194 203 164 172 175 172 175 173 175 174 165 155 152 151 135 143 161 161 160 156 153 148 119 109 109 151 177 156 138 151 174 193 219 193 168 209 227 186 165 196 212 188 185 208 240 258 252 230 202 154 185 202 221 236 230 222 217 208 210 211 213 216
179 168 167 167 164 164 169 175 179 177 173 173 165 157 160 164 183 214 229 233 275 248 198 181 176 180 209 152 151 169 173 169 174 173 171 175 170 153 143 141 124 124 129 132 145 142 142 146 118 139 127 186 192 160 159 184 172 171 222 215 194 207 220 207 163 172 197 206 217 218 235 253 256 235 208 163 187 204 222 238 239 231 225 217 214 212 213 214
180 170 165 165 165 161 163 173 184 187 182 175 176 173 168 176 186 203 227 227 259 281 276 226 177 178 228 174 167 168 162 160 169 170 168 171 168 157 148 144 135 128 118 120 147 141 139 148 150 167 176 198 192 183 192 184 157 165 190 203 210 209 220 222 189 133 179 206 228 224 227 246 255 248 230 212 187 203 226 238 248 245 238 232 225 221 222 219
179 171 164 162 164 162 162 165 171 185 186 177 170 158 150 157 168 178 190 192 228 247 280 258 182 170 171 186 177 151 160 164 166 168 165 165 163 155 144 140 143 140 134 139 163 162 147 130 187 191 187 192 187 197 205 167 168 181 187 192 197 198 215 223 183 117 183 212 227 231 234 243 253 251 242 238 220 220 234 239 248 248 239 232 230 228 225 225
172 168 164 162 161 160 160 162 165 170 177 178 167 149 143 143 147 186 167 164 213 214 246 271 217 78 37 150 146 144 162 164 162 167 164 160 155 146 135 140 149 156 157 157 159 165 158 163 201 200 189 186 184 197 205 167 179 185 177 186 201 203 210 204 181 132 156 236 236 234 243 248 255 257 251 247 242 242 243 238 239 242 238 224 221 226 224 226
166 164 164 160 157 159 154 149 157 160 166 173 170 162 164 163 167 186 155 188 225 202 243 270 292 317 310 291 157 145 147 162 161 159 158 157 150 143 146 158 158 182 175 148 139 149 175 200 206 197 188 180 183 197 200 166 182 182 172 184 203 216 225 188 177 157 136 243 252 249 258 256 255 261 260 249 239 244 246 241 237 237 242 233 219 225 227 229
158 157 159 153 149 156 152 142 142 149 160 170 176 185 163 154 139 127 135 224 224 180 233 252 334 300 255 286 211 153 135 164 165 156 157 158 157 158 170 175 169 178 167 139 133 158 194 213 197 180 175 166 179 198 196 180 181 186 184 191 206 204 238 257 204 188 174 229 264 270 272 265 260 261 262 252 241 243 243 244 243 236 241 243 229 224 226 233
148 146 147 144 143 150 150 149 145 142 151 163 182 192 135 138 134 131 146 260 227 176 216 225 213 270 247 276 243 170 159 173 165 166 166 161 166 172 165 169 172 163 161 165 167 173 198 211 183 157 149 159 178 193 192 191 193 197 186 191 206 168 188 242 202 167 203 233 279 292 284 272 264 258 256 252 243 241 240 241 245 239 239 246 242 230 223 228
145 143 142 140 140 145 148 155 151 142 151 155 180 183 139 119 138 145 157 222 259 187 196 210 195 240 246 253 254 207 177 170 162 166 171 166 160 162 166 168 168 161 172 182 182 182 183 172 166 155 156 172 182 186 189 195 200 205 202 204 200 168 192 237 46 37 254 232 252 289 286 275 254 242 245 249 238 234 236 237 243 240 234 242 246 238 227 226
144 141 143 142 140 144 146 148 142 142 156 153 176 188 165 113 130 150 140 166 261 228 188 194 184 213 237 239 244 241 182 169 162 159 171 177 161 151 173 175 167 171 180 182 182 194 181 155 163 164 171 182 182 187 193 193 195 206 211 214 198 170 191 200 60 2 284 251 200 248 279 277 224 226 237 249 240 233 231 230 238 240 229 229 236 234 225 221
145 143 146 145 143 144 143 140 146 153 151 163 191 189 192 173 130 145 109 7 249 217 166 163 159 189 201 214 205 209 205 184 159 158 166 178 170 153 167 174 186 183 177 177 185 207 179 168 173 172 177 184 185 193 193 186 197 214 190 189 192 184 187 182 165 190 263 271 199 180 265 281 266 242 242 251 260 254 241 230 234 236 230 224 224 227 221 217
146 147 148 147 149 148 142 137 154 156 143 205 191 166 186 188 154 145 114 274 239 148 153 167 160 169 178 191 173 186 215 150 141 168 170 172 172 167 171 167 185 188 167 165 191 201 166 171 178 180 181 185 193 198 184 181 201 204 151 162 187 193 192 191 191 218 255 311 280 205 238 281 280 254 235 239 255 259 251 243 237 231 233 232 227 224 219 220
150 150 149 149 155 154 147 143 145 151 144 177 178 165 171 167 155 153 161 225 217 111 146 179 163 162 167 177 176 204 229 139 147 182 177 174 171 174 187 178 179 178 163 169 191 186 161 172 176 177 180 190 201 189 164 174 202 177 139 158 186 192 192 194 197 226 280 335 267 210 173 267 276 220 186 213 239 252 250 246 241 233 232 233 232 229 220 219
158 155 155 154 157 158 146 140 140 154 158 138 158 167 157 147 143 130 194 210 158 74 184 175 157 158 151 156 179 214 240 159 149 159 170 180 178 199 193 181 173 161 155 184 191 137 162 176 175 173 181 201 198 167 158 178 198 143 133 132 138 151 146 171 195 201 180 254 254 191 161 248 280 224 173 192 224 241 247 246 246 241 235 230 232 235 226 218
161 160 162 158 161 164 146 138 144 150 153 143 156 162 150 140 139 162 206 208 99 88 182 160 172 163 157 173 191 205 217 232 103 143 163 174 159 344 140 151 157 151 148 18 63 120 121 137 172 176 190 195 165 137 159 180 157 125 130 114 99 91 68 85 200 171 212 250 236 172 168 215 286 252 173 175 205 225 242 254 252 248 242 232 229 234 231 222
163 165 167 163 169 170 155 159 166 148 138 142 154 160 152 141 164 192 204 182 62 180 171 150 178 166 166 182 196 199 204 204 129 148 158 154 147 164 140 132 126 144 160 148 44 158 140 141 172 189 190 133 118 114 137 155 144 137 139 127 112 104 97 126 166 184 226 244 178 168 174 193 242 247 148 149 149 200 231 248 256 254 247 237 230 232 231 224
164 167 167 169 173 169 162 178 176 168 169 149 141 150 155 155 188 206 194 81 56 203 171 155 173 170 174 185 194 200 193 174 159 157 160 166 166 175 177 173 162 158 175 176 168 163 157 166 150 72 178 148 129 129 116 136 163 163 150 148 146 149 164 194 194 200 232 235 140 179 182 207 241 255 244 246 258 251 240 236 249 257 255 247 237 233 229 221
163 163 165 172 171 164 163 171 175 182 184 159 141 139 172 185 192 198 199 137 82 215 175 170 170 162 170 183 200 208 194 171 171 165 167 171 169 183 199 190 169 166 176 164 151 144 148 288 140 130 180 176 156 153 156 169 179 172 161 162 163 153 171 204 199 219 246 223 167 175 168 251 258 268 254 244 253 261 261 251 247 249 254 255 251 252 250 232
161 162 165 171 171 161 151 140 152 174 173 158 158 181 201 206 180 180 207 235 48 24 305 199 167 158 168 183 197 203 206 197 174 168 173 175 170 184 201 197 184 169 130 152 154 156 162 234 193 173 168 179 179 166 147 143 159 176 174 172 179 179 194 207 198 211 222 158 159 170 180 239 237 350 313 260 267 270 272 268 253 250 253 258 269 277 269 248
162 165 167 170 175 169 159 143 140 161 164 151 165 195 209 211 171 177 203 206 122 189 288 245 173 161 173 188 195 192 188 226 186 175 175 178 177 182 184 190 193 183 156 164 172 175 183 218 174 169 155 177 179 161 135 137 158 186 176 183 206 201 187 195 237 210 130 101 186 191 236 251 250 316 295 272 274 265 257 250 237 245 251 251 261 256 243 236
160 164 170 172 176 175 175 173 158 162 164 149 169 198 219 228 191 183 198 187 179 168 167 216 184 168 179 179 192 196 168 107 210 193 181 182 184 185 182 184 190 189 179 166 153 175 190 193 150 137 74 183 177 154 153 156 156 172 187 195 201 135 112 151 243 67 97 244 219 189 249 274 299 290 264 244 253 253 254 254 237 237 246 245 250 247 239 232
157 161 172 177 181 182 182 179 164 163 169 163 178 197 211 233 228 208 208 186 180 171 170 195 185 176 189 172 188 197 172 147 229 223 189 184 189 188 184 183 189 192 188 168 156 186 174 132 115 151 146 179 173 139 166 179 135 148 193 185 123 39 17 222 226 164 177 242 234 195 238 260 268 270 238 194 233 239 245 255 251 244 238 239 249 249 244 237
157 157 178 187 186 185 182 175 162 157 165 172 193 205 202 223 232 223 244 199 175 183 194 209 187 179 184 174 190 191 175 173 200 212 188 184 191 186 180 181 191 195 192 175 164 171 155 120 10 198 160 160 132 136 170 226 213 181 188 167 154 193 194 195 215 200 196 228 253 214 233 251 231 234 231 181 206 223 236 241 241 242 235 232 248 252 246 240
152 149 200 195 190 184 176 169 158 153 180 185 197 210 203 220 236 230 240 258 240 203 202 214 203 207 209 186 179 182 183 189 186 172 189 194 199 186 184 182 187 193 193 182 171 161 158 140 141 210 156 143 156 170 177 201 222 250 181 176 196 233 198 192 197 198 200 216 251 239 228 245 223 213 222 222 222 235 245 243 232 240 238 228 245 256 252 245
154 158 224 189 186 178 167 161 157 169 191 200 205 209 206 219 236 237 237 246 254 217 207 218 198 208 256 210 177 173 192 204 194 178 182 195 209 197 192 186 176 186 188 185 176 158 160 171 148 147 142 155 180 201 190 186 182 179 185 187 195 197 184 214 206 210 219 213 231 241 247 251 213 173 204 221 228 235 245 254 242 240 236 216 236 254 254 252
157 178 185 180 177 168 158 156 169 184 191 212 214 213 214 220 230 235 236 240 248 241 145 235 221 208 228 225 197 155 166 203 208 198 185 187 200 211 196 191 177 175 178 178 179 169 171 184 149 146 173 188 190 194 194 192 183 183 192 193 193 181 158 192 204 200 213 222 213 230 266 267 189 157 201 215 226 230 233 248 248 250 245 213 227 237 238 246
165 175 160 174 171 162 155 162 178 183 200 209 209 212 216 222 228 229 230 232 242 245 190 245 248 226 199 212 250 209 161 183 194 201 210 197 208 214 193 191 180 169 174 180 178 171 127 118 132 141 173 178 160 140 248 205 195 203 224 210 198 188 181 202 213 191 181 225 11 41 281 283 147 159 201 210 224 228 205 229 250 265 259 239 245 240 232 238
181 157 146 174 172 163 155 179 179 186 208 208 211 218 216 222 228 227 227 222 226 231 225 234 249 243 214 191 218 229 186 200 191 195 219 213 218 220 188 189 183 171 179 188 176 161 80 115 124 102 86 55 51 79 1 337 186 210 232 222 201 200 197 201 238 169 175 201 205 214 259 266 204 141 205 228 263 274 246 216 235 261 265 251 253 249 241 237
175 111 122 178 177 168 165 179 175 186 203 206 211 217 218 228 228 223 223 220 216 215 222 227 226 244 243 176 192 199 190 211 207 196 209 218 229 230 175 188 191 182 186 185 174 180 183 161 142 128 144 141 94 175 198 203 197 207 214 206 206 210 189 121 66 162 203 210 198 211 250 250 198 88 217 240 267 269 262 229 218 248 263 253 250 252 251 253
155 126 4 183 180 177 191 182 169 184 196 202 210 216 218 223 227 224 222 219 220 220 221 221 214 227 236 189 199 201 189 203 221 202 208 214 252 310 176 185 194 200 201 187 175 182 185 170 164 159 167 174 184 194 193 186 186 202 197 193 206 207 188 180 187 187 226 217 192 209 240 235 99 116 203 213 227 254 259 232 205 239 251 249 252 257 256 254
165 167 194 187 173 217 235 248 207 201 199 199 208 217 218 224 227 221 220 220 220 222 227 225 212 220 231 214 207 207 197 198 193 200 230 212 209 303 192 185 193 206 205 184 170 168 154 184 191 187 188 193 196 198 184 155 149 180 194 195 198 198 193 191 189 209 221 203 180 220 231 225 145 184 200 207 212 236 245 202 176 237 247 240 240 258 273 267
181 178 180 176 173 206 227 232 216 217 213 206 207 206 213 223 226 214 213 216 214 215 227 230 212 211 222 215 211 211 202 198 182 180 245 232 215 323 203 190 199 205 197 179 175 166 143 195 198 199 209 212 199 180 167 158 172 189 193 193 190 190 193 195 208 217 207 167 221 232 228 230 223 193 204 218 203 215 241 212 182 222 254 262 252 266 274 262
192 184 179 173 176 199 208 209 209 219 219 212 220 226 220 222 224 217 208 209 213 210 215 226 219 213 213 208 211 214 197 197 206 203 219 233 210 291 188 196 212 206 186 180 203 181 168 203 200 199 213 217 174 158 169 175 190 190 183 187 188 187 192 201 218 220 194 196 236 232 208 222 225 198 212 227 207 209 235 213 165 197 254 280 286 289 280 264
178 194 186 187 207 199 192 189 195 214 221 215 221 233 232 229 226 223 211 207 215 210 208 220 217 212 212 207 208 218 203 189 206 212 206 194 188 194 178 185 227 207 176 185 222 208 197 207 199 197 209 213 181 178 179 180 190 187 181 187 186 186 194 205 219 220 206 224 240 237 202 232 227 205 215 227 214 212 239 256 216 205 220 245 258 280 286 280
168 200 180 182 231 216 211 198 190 209 220 215 219 225 230 234 231 227 219 212 213 207 207 218 217 209 211 208 206 218 214 194 203 213 199 187 193 202 196 192 186 178 179 188 200 222 221 200 185 190 203 201 197 214 194 186 189 188 185 185 183 188 200 211 221 218 211 232 242 243 258 259 232 203 221 239 228 225 253 254 247 223 211 234 251 257 271 281
172 155 149 160 225 211 219 224 213 225 227 217 223 223 223 231 232 229 225 218 217 212 203 210 215 211 210 212 212 216 214 204 213 217 197 190 199 196 195 202 176 171 181 189 190 198 208 194 172 177 202 202 185 196 198 190 191 193 187 182 183 192 201 210 218 211 206 227 237 233 250 257 215 169 207 259 265 266 264 260 260 251 235 242 254 244 232 252
154 113 136 172 235 205 207 223 217 223 231 218 219 222 223 229 229 229 230 221 218 219 209 206 210 210 211 212 211 213 213 212 220 221 196 194 201 181 171 199 187 184 184 183 189 192 190 192 174 172 200 207 175 164 167 162 173 198 197 190 189 196 203 208 214 212 210 221 226 219 231 234 146 152 189 220 235 246 251 251 250 246 233 225 238 235 224 231